Probability
0 0 0 0 0 0 0 0 0 0 0 0 0 0 0 0 0 0 0 0 0 0 0 0 0 0 0 0 0 0 0 0 0 0 0 3 6 10
0 0 0 0 0 0 0 0 0 0 0 0 0 0 0 0 0 0 0 0 0 0 0 0 0 0 0 0 0 0 0 0 0 0 0 0 0 3
0 0 0 0 0 0 0 0 0 0 0 0 0 0 0 0 0 0 0 0 0 0 0 0 0 0 0 0 0 0 0 0 0 0 0 0 0 0
0 0 0 0 0 0 0 0 0 0 0 0 0 0 0 0 0 0 0 0 0 0 0 0 0 0 0 0 0 0 0 0 0 0 0 0 0 0
0 0 0 0 0 0 0 0 0 0 0 0 0 0 0 0 0 0 0 0 0 0 0 0 0 0 0 0 0 0 0 0 0 0 0 0 0 0
0 0 0 0 0 0 0 0 0 0 0 0 0 0 0 0 0 0 0 0 0 0 0 0 0 0 0 0 0 0 0 0 0 0 0 0 0 0
0 0 0 0 0 0 0 0 0 0 0 0 0 0 0 0 0 0 0 0 0 0 0 0 0 0 0 0 0 0 0 0 0 0 0 0 0 0
0 0 0 0 0 0 0 0 0 0 0 0 0 0 0 0 0 0 0 0 0 0 0 0 0 0 0 0 0 0 0 0 0 0 0 0 0 0
0 0 0 0 0 0 0 0 0 0 0 0 0 0 0 0 0 0 0 0 0 0 0 0 0 0 0 0 0 0 0 0 0 0 0 0 0 0
0 0 0 0 0 0 0 0 0 0 0 0 0 0 0 0 0 0 0 0 0 0 0 0 0 0 0 0 0 0 0 0 0 0 0 0 0 0
0 0 0 0 0 0 0 0 0 0 0 0 0 0 0 0 0 0 0 0 0 0 0 0 0 0 0 0 0 0 0 0 0 0 0 0 0 0
0 0 0 0 0 0 0 0 0 0 0 0 0 0 0 0 0 0 0 0 0 0 0 0 0 0 0 0 0 0 0 0 0 0 0 0 0 0
0 0 0 0 0 0 0 0 0 0 0 0 0 0 0 0 0 0 0 0 0 0 0 0 0 0 0 0 0 0 0 0 0 0 0 0 0 0
0 0 0 0 0 0 0 0 0 0 0 0 0 0 0 0 0 0 0 0 0 0 0 0 0 0 0 0 0 0 0 0 0 0 0 0 0 0
0 0 0 0 0 0 0 0 0 0 0 0 0 0 0 0 0 0 0 0 0 0 0 0 0 0 0 0 0 0 0 0 0 0 0 0 0 0
0 0 0 0 0 0 0 0 0 0 0 0 0 0 0 0 0 0 0 0 0 0 0 0 0 0 0 0 0 0 0 0 0 0 0 0 0 0
0 0 0 0 0 0 0 0 0 0 0 0 0 0 0 0 0 0 0 0 0 0 0 0 0 0 0 0 0 0 0 0 0 0 0 0 0 0
0 0 0 0 0 0 0 0 0 0 0 0 0 0 0 0 0 0 0 0 0 0 0 0 0 0 0 0 0 0 0 0 0 0 0 0 0 0
0 0 0 0 0 0 0 0 0 0 0 0 0 0 0 0 0 0 0 0 0 0 0 0 0 0 0 0 0 0 0 0 0 0 0 0 0 0
0 0 0 0 0 0 0 0 0 0 0 0 0 0 0 0 0 0 0 0 0 0 0 0 0 0 0 0 0 0 0 0 0 0 0 0 0 0
0 0 0 0 0 0 0 0 0 0 0 0 0 0 0 0 0 0 0 0 0 0 0 0 0 0 0 0 0 0 0 0 0 0 0 0 0 0
0 0 0 0 0 0 0 0 0 0 0 0 0 0 0 0 0 0 0 0 0 0 0 0 0 0 0 0 0 0 0 0 0 0 0 0 0 0
0 0 0 0 0 0 0 0 0 0 0 0 0 0 0 0 0 0 0 0 0 0 0 0 0 0 0 0 0 0 0 0 0 0 0 0 0 0
Height
5727 5726 5725 5724 5723 5722 5722 5722 5722 5722 5722 5721 5720 5720 5720 5720 5719 5719 5719 5720 5720 5721 5722 5723 5724 5726 5728 5730 5732 5734 5736 5738 5740 5742 5745 5748 5751 5753
5720 5719 5717 5716 5715 5714 5714 5713 5713 5713 5713 5712 5712 5711 5711 5711 5710 5709 5710 5710 5710 5711 5711 5713 5714 5715 5717 5719 5721 5723 5725 5727 5729 5731 5734 5736 5739 5742
5713 5712 5710 5709 5708 5707 5706 5706 5705 5705 5704 5704 5703 5702 5702 5701 5701 5700 5700 5700 5700 5701 5701 5702 5703 5705 5707 5708 5710 5712 5714 5716 5718 5720 5722 5724 5727 5730
5707 5706 5704 5703 5702 5701 5700 5699 5698 5697 5697 5696 5695 5694 5693 5692 5692 5691 5691 5691 5691 5691 5692 5692 5693 5694 5696 5698 5700 5701 5703 5705 5706 5708 5710 5712 5715 5717
5702 5700 5699 5698 5697 5695 5694 5693 5692 5691 5690 5689 5688 5686 5685 5684 5683 5683 5682 5682 5682 5682 5682 5683 5683 5684 5686 5687 5688 5690 5692 5693 5694 5696 5697 5699 5701 5704
5697 5695 5694 5692 5691 5690 5689 5687 5686 5685 5683 5682 5680 5679 5677 5676 5675 5675 5674 5673 5673 5672 5673 5673 5674 5674 5675 5677 5678 5679 5680 5681 5682 5683 5685 5687 5689 5692
5692 5690 5689 5687 5686 5685 5683 5682 5680 5679 5677 5675 5674 5672 5670 5669 5668 5667 5666 5665 5665 5664 5664 5664 5664 5665 5665 5666 5667 5667 5668 5669 5671 5672 5673 5675 5677 5680
5687 5686 5684 5683 5681 5680 5678 5676 5675 5673 5671 5669 5667 5665 5664 5662 5661 5660 5659 5658 5658 5657 5655 5655 5655 5655 5655 5656 5656 5657 5657 5659 5660 5661 5662 5664 5666 5668
5682 5681 5680 5678 5677 5675 5673 5671 5669 5667 5665 5664 5662 5659 5657 5656 5654 5653 5652 5651 5649 5648 5647 5647 5646 5646 5646 5646 5646 5647 5647 5648 5649 5650 5651 5653 5655 5656
5678 5677 5675 5673 5672 5670 5668 5666 5664 5662 5660 5658 5656 5653 5651 5649 5648 5646 5645 5644 5642 5640 5639 5639 5639 5638 5638 5637 5637 5637 5637 5638 5639 5640 5641 5642 5643 5645
5673 5672 5671 5669 5667 5665 5664 5662 5659 5657 5655 5652 5650 5648 5646 5644 5642 5640 5638 5637 5635 5633 5632 5631 5631 5630 5630 5629 5628 5628 5627 5627 5628 5629 5630 5631 5632 5633
5669 5667 5666 5664 5662 5660 5658 5656 5654 5652 5650 5647 5645 5642 5640 5638 5636 5634 5632 5631 5629 5627 5625 5625 5624 5623 5622 5621 5620 5619 5618 5617 5618 5619 5620 5621 5621 5623
5664 5663 5661 5659 5657 5656 5654 5652 5649 5647 5645 5642 5640 5637 5635 5632 5630 5628 5627 5625 5623 5621 5620 5618 5616 5615 5614 5613 5612 5610 5609 5608 5608 5609 5610 5611 5612 5613
5660 5658 5657 5655 5653 5651 5649 5647 5644 5642 5639 5637 5634 5632 5629 5627 5625 5623 5621 5619 5617 5615 5613 5612 5610 5608 5607 5605 5604 5602 5600 5600 5600 5600 5601 5601 5602 5603
5655 5654 5652 5650 5648 5646 5644 5642 5639 5637 5634 5632 5629 5627 5624 5622 5620 5618 5616 5614 5612 5609 5607 5605 5604 5601 5599 5598 5596 5594 5593 5592 5592 5592 5592 5592 5593 5594
5651 5649 5647 5645 5643 5641 5639 5637 5635 5632 5630 5627 5624 5622 5619 5617 5615 5613 5611 5609 5606 5604 5601 5599 5597 5595 5593 5590 5588 5587 5585 5584 5584 5584 5584 5584 5584 5585
5647 5645 5643 5641 5639 5637 5635 5633 5630 5628 5625 5623 5620 5617 5614 5612 5610 5608 5606 5603 5601 5598 5596 5594 5591 5589 5586 5584 5582 5579 5578 5577 5576 5575 5575 5576 5576 5576
5643 5642 5640 5637 5635 5633 5631 5628 5626 5624 5621 5619 5616 5613 5610 5608 5605 5603 5600 5598 5595 5593 5590 5588 5585 5583 5580 5578 5575 5573 5571 5570 5569 5568 5568 5568 5568 5568
5640 5638 5636 5633 5631 5629 5627 5625 5622 5620 5618 5615 5612 5609 5606 5603 5600 5598 5596 5593 5590 5588 5585 5582 5579 5576 5574 5571 5569 5566 5564 5563 5562 5561 5561 5561 5561 5561
5637 5635 5632 5630 5627 5625 5623 5621 5618 5616 5613 5611 5608 5605 5602 5599 5596 5593 5591 5588 5585 5583 5580 5576 5574 5571 5568 5565 5562 5560 5558 5557 5556 5555 5554 5554 5554 5553
5634 5632 5629 5627 5624 5622 5619 5617 5614 5612 5609 5606 5604 5601 5598 5594 5591 5589 5586 5583 5580 5577 5574 5571 5568 5565 5562 5559 5557 5554 5553 5551 5550 5549 5548 5547 5547 5547
5631 5629 5626 5623 5621 5618 5616 5613 5611 5608 5605 5602 5599 5596 5593 5590 5587 5584 5581 5578 5575 5571 5569 5565 5562 5559 5556 5554 5551 5549 5547 5545 5544 5543 5542 5541 5540 5540
5628 5625 5623 5620 5618 5615 5612 5609 5607 5604 5601 5598 5595 5592 5589 5585 5582 5579 5576 5573 5570 5567 5563 5560 5557 5554 5551 5548 5546 5543 5541 5539 5538 5537 5536 5535 5534 5533
Wind_Speed
22 22 23 23 23 23 24 24 25 25 25 27 28 29 28 28 29 30 30 31 32 33 33 33 33 34 35 36 36 36 36 37 39 40 40 40 40 40
21 21 21 22 22 22 23 24 24 24 25 26 26 26 27 28 29 29 30 31 31 33 33 33 33 33 35 36 37 37 37 37 38 39 40 40 40 41
21 20 19 19 20 21 21 22 22 23 23 24 25 25 26 26 27 27 29 30 31 32 33 33 34 34 34 36 37 38 37 38 38 40 41 41 42 43
19 18 18 17 17 18 19 20 21 21 21 22 22 23 24 25 26 26 27 28 30 31 32 32 33 34 35 36 37 37 38 39 39 40 41 42 42 44
19 17 17 17 17 18 18 18 19 20 20 20 21 22 23 25 25 27 27 28 29 29 30 31 32 33 34 36 36 37 38 39 39 40 41 41 42 43
17 16 16 17 17 16 17 18 18 19 19 20 21 21 22 23 24 25 26 27 27 28 28 29 31 32 33 34 35 36 37 37 38 38 39 40 42 42
15 15 15 15 15 16 17 18 18 19 19 20 20 20 20 21 22 23 24 25 26 26 26 28 30 31 31 32 34 36 36 37 37 37 38 40 41 41
14 14 14 14 15 16 17 17 18 18 19 19 19 19 19 20 21 23 23 23 24 25 25 26 27 29 30 31 32 33 34 35 35 36 38 39 40 41
13 14 14 14 14 15 16 16 17 18 18 18 18 18 19 19 20 21 22 23 23 24 25 24 25 27 28 29 29 31 32 33 34 35 36 37 39 40
13 13 13 14 14 15 15 16 16 17 17 17 17 17 17 18 19 19 21 21 23 24 24 25 25 25 26 28 29 30 31 33 34 35 35 36 37 38
13 13 13 14 14 15 15 15 16 16 17 17 17 17 18 18 18 19 19 20 21 23 24 24 25 26 27 27 28 29 31 32 33 34 34 35 35 36
13 13 13 13 14 14 15 15 16 16 16 17 18 18 18 19 18 18 18 19 20 21 22 24 25 25 25 26 27 28 29 31 32 32 32 33 34 34
12 12 13 13 14 14 15 15 15 16 16 18 18 18 18 18 18 18 18 18 18 18 19 20 21 22 23 23 24 25 26 27 27 28 28 29 30 31
12 13 13 13 13 14 14 15 15 16 17 18 18 18 17 17 17 17 17 17 17 18 18 19 19 20 21 21 22 23 24 24 25 26 27 28 29 30
12 12 12 12 13 14 15 15 15 16 17 17 17 17 17 16 16 17 18 18 18 18 19 19 19 19 19 19 20 21 22 23 24 25 27 28 28 29
11 12 12 13 14 15 15 15 15 16 17 17 18 17 17 16 16 17 18 18 18 18 19 19 19 18 18 19 20 21 21 21 22 23 25 26 27 28
10 12 13 13 14 15 15 16 16 16 17 17 17 18 17 16 17 17 18 18 18 18 18 19 19 19 19 20 20 20 20 20 20 21 22 24 25 26
11 12 14 14 15 15 15 15 16 16 16 16 16 17 16 16 16 17 17 18 18 17 18 19 19 19 19 19 20 20 19 19 19 20 20 21 23 24
12 13 13 14 15 15 15 15 15 15 15 15 16 16 16 16 16 17 17 18 18 18 17 18 18 18 18 19 19 19 19 19 19 19 20 21 22 23
12 12 13 14 14 14 14 15 15 15 16 16 16 16 17 17 17 17 18 18 18 18 18 18 18 18 18 18 17 17 17 18 18 18 19 19 20 21
11 13 13 13 14 14 15 15 16 16 16 16 16 17 17 18 18 18 18 18 18 18 19 19 19 19 18 17 17 17 17 17 18 18 18 18 19 19
12 13 14 14 14 15 15 16 16 16 16 16 17 17 17 17 18 18 18 18 18 19 19 19 19 18 18 18 18 18 17 17 17 17 17 17 17 18
13 14 15 14 15 16 16 16 16 16 16 16 16 17 17 17 17 17 18 18 18 18 19 19 18 18 17 18 17 17 17 17 17 17 16 17 17 17
Wind_Direction
277 278 278 277 277 274 271 269 268 266 267 268 267 266 267 266 267 265 261 259 259 258 257 257 255 253 250 249 248 249 250 249 248 247 245 245 246 245
285 285 282 279 278 273 272 271 269 269 270 271 270 270 268 268 268 266 263 263 261 260 258 257 255 253 251 249 248 248 249 250 250 249 247 246 245 246
289 287 285 282 279 275 273 272 271 271 271 272 272 272 271 270 269 267 264 264 262 261 260 258 256 254 252 250 250 250 251 251 252 252 251 249 248 246
290 286 286 287 285 280 276 274 273 274 275 275 274 273 272 271 269 267 266 266 265 262 260 257 255 254 253 251 251 252 253 253 253 253 252 251 249 246
290 287 287 286 286 282 279 278 276 277 278 278 278 277 273 270 269 268 268 267 265 263 260 259 257 257 255 254 253 254 254 254 253 252 251 250 249 247
290 289 288 286 286 283 283 283 282 282 281 282 283 282 277 274 273 270 269 269 267 264 261 261 260 259 258 257 256 256 256 255 254 253 252 251 249 247
290 289 289 288 288 286 286 286 284 284 283 284 286 283 279 276 275 272 272 270 268 269 263 261 261 261 261 260 259 258 258 256 255 254 252 251 250 248
290 289 289 289 290 292 291 290 288 288 288 288 288 287 283 280 278 275 274 271 270 271 267 264 263 263 262 262 262 258 256 255 253 252 252 252 251 249
290 289 289 291 294 297 298 296 294 291 291 290 290 291 287 285 283 280 277 274 273 273 271 268 266 266 265 264 263 262 258 256 255 254 253 252 251 251
292 292 293 294 297 299 299 300 299 296 295 293 294 292 291 289 288 286 282 277 277 276 274 272 269 268 266 265 264 264 261 259 257 254 253 253 252 252
290 293 295 295 296 297 299 301 301 301 298 296 295 293 292 291 292 292 288 284 282 280 276 274 272 272 269 267 267 266 264 261 257 254 253 252 252 251
290 294 297 297 297 299 301 304 304 304 302 299 298 297 294 293 292 293 292 290 287 282 278 277 276 276 274 272 271 270 268 265 260 256 254 253 252 251
286 291 296 299 301 302 304 306 307 308 307 305 302 298 294 293 291 292 293 295 295 291 285 282 282 281 279 276 274 273 270 266 262 257 253 252 251 250
286 291 296 301 305 307 309 308 307 308 310 309 308 304 297 295 294 294 296 297 298 298 294 290 288 288 285 280 278 275 271 267 264 258 255 255 254 251
289 292 297 302 307 309 310 309 308 309 309 310 310 309 302 296 295 295 296 297 298 298 297 295 292 291 290 286 283 279 275 269 265 261 258 256 255 253
295 297 300 303 306 308 309 309 310 310 310 309 309 310 306 299 298 299 299 298 299 299 297 297 296 295 293 290 288 284 278 272 266 263 262 260 258 255
301 304 306 307 308 309 309 311 312 311 311 311 311 310 308 304 301 301 303 302 303 304 301 298 297 297 295 293 291 288 282 276 271 268 266 263 260 258
305 308 308 305 306 312 312 313 315 314 315 314 313 311 311 309 305 302 304 306 306 305 305 304 301 299 297 294 291 288 284 279 274 272 271 268 263 260
309 311 312 310 310 310 311 313 315 315 316 316 316 315 314 311 309 307 306 307 308 308 307 306 306 305 302 298 293 288 285 281 276 274 274 272 269 265
310 313 317 317 316 315 314 315 315 314 314 315 315 316 318 315 312 309 307 306 307 308 307 306 307 306 306 302 297 292 287 283 279 276 275 274 271 269
313 312 315 319 320 318 316 314 314 314 313 313 315 317 319 317 314 312 311 309 309 309 308 307 308 307 304 302 299 295 290 286 283 280 277 275 274 272
315 314 316 319 319 316 316 316 314 314 314 315 316 319 318 316 316 316 315 316 315 314 311 310 310 308 305 304 302 297 292 287 285 283 281 278 276 274
316 318 321 322 321 319 317 317 315 316 317 316 316 318 318 319 319 318 319 320 319 317 315 314 313 311 309 308 306 302 296 291 287 284 283 282 279 276